{"data":{"norad_id":57909,"epoch":"2026-05-24T15:03:55.184256Z","epoch_age_seconds":97305,"freshness":"FRESH","line1":"1 57909U 23146U   26144.62772204  .00000786  00000+0  38090-4 0  9997","line2":"2 57909  42.9989 245.8815 0001404 271.1676  88.9015 15.27586136147608","mean_motion":15.27586136,"eccentricity":0.0001404,"inclination_deg":42.9989,"raan_deg":245.8815,"arg_perigee_deg":271.1676,"mean_anomaly_deg":88.9015,"bstar":3.809e-5,"rev_number":14760,"period_min":94.266370063469,"perigee_km":482.06741476147,"apogee_km":483.99403065801,"semimajor_km":6861.1677227097,"source":"CELESTRAK","updated_at":"2026-05-25T13:38:18.455381Z"}}